Flag for Norway Weather past 2 weeks in Kristiansund, Norway

Now
61 °F

Partly cloudy.


Feels Like: 61 °F
Forecast: 56 / 61 °F
Wind: 9 mph from West

Location: Kristiansund / Kvernberget

Current Time: Aug 5, 2015 at 12:46:23 AM

Latest Report: Aug 4, 2015 at 11:50 PM


Visibility: N/A

Pressure: 29.77 "Hg

Humidity: 72%

Dew point: 52 °F

Location of KristiansundLocation

Historic Weather in Kristiansund — Graph

°F

Kristiansund temperature yesterday

Maximum temperature yesterday: 73 °F (at 2:20 PM)
Minimum temperature yesterday: 54 °F (at 12:50 AM)
Average temperature yesterday: 63 °F

Past Weeks' High & Low Weather Summary

 TemperatureHumidityPressure
High73 °F (Aug 4, 2:20 PM)100% (Jul 22, 7:20 AM)30.12 "Hg (Jul 22, 7:20 AM)
Low45 °F (Aug 1, 2:20 AM)47% (Aug 4, 1:50 PM)29.42 "Hg (Jul 27, 7:20 AM)
Average54 °F80%29.74 "Hg
* Reported Jul 20 11:20 PM — Aug 4 11:20 PM, Kristiansund, Weather by CustomWeather, © 2015

Note: Actual official high and low records may vary slightly from our data, if they occured in-between our weather recording intervals... More about our weather records

Advertising

Kristiansund weather history for previous 24 hours

 ConditionsComfort  
Time TempWeatherWind HumidityBarometerVisibility
11:20 PM
Tue, Aug 4
61 °FPartly cloudy.12 mph72%29.77 "HgN/A
10:50 PM63 °FOvercast.9 mph68%29.77 "HgN/A
10:20 PM66 °FOvercast.3 mph60%29.77 "HgN/A
9:50 PM66 °FMostly cloudy.6 mph60%29.77 "HgN/A
9:20 PM68 °FMild.5 mph56%29.77 "HgN/A
8:50 PM68 °FBroken clouds.7 mph56%29.77 "HgN/A
8:20 PM68 °FBroken clouds.12 mph53%29.74 "HgN/A
7:50 PM68 °FBroken clouds.7 mph53%29.74 "HgN/A
7:20 PM70 °FBroken clouds.9 mph53%29.77 "HgN/A
6:50 PM68 °FScattered clouds.7 mph56%29.77 "HgN/A
6:20 PM70 °FPassing clouds.7 mph53%29.77 "HgN/A
5:50 PM70 °FPassing clouds.9 mph50%29.77 "HgN/A
5:20 PM72 °FPassing clouds.6 mph47%29.77 "HgN/A
4:50 PM72 °FPassing clouds.7 mph50%29.77 "HgN/A
4:20 PM72 °FPassing clouds.9 mph50%29.77 "HgN/A
3:50 PM73 °FPassing clouds.9 mph47%29.77 "HgN/A
3:20 PM73 °FSunny.7 mph47%29.77 "Hg10 mi
2:50 PM72 °FPassing clouds.6 mph50%29.80 "HgN/A
2:20 PM73 °FPassing clouds.10 mph47%29.80 "HgN/A
1:50 PM72 °FPassing clouds.10 mph47%29.80 "HgN/A
1:20 PM70 °FPassing clouds.10 mph50%29.80 "HgN/A
12:50 PM64 °FPassing clouds.6 mph60%29.80 "HgN/A
12:20 PM64 °FPassing clouds.7 mph56%29.80 "HgN/A
11:50 AM63 °FSprinkles. Broken clouds.6 mph59%29.83 "HgN/A
11:20 AM63 °FSprinkles. Partly sunny.8 mph59%29.83 "HgN/A
10:50 AM63 °FSunny.7 mph56%29.83 "Hg10 mi
10:20 AM63 °FPassing clouds.7 mph56%29.83 "HgN/A
9:50 AM63 °FPassing clouds.10 mph59%29.83 "HgN/A
9:20 AM63 °FPassing clouds.10 mph59%29.83 "HgN/A
8:50 AM61 °FPassing clouds.7 mph63%29.83 "HgN/A
8:20 AM59 °FSunny.9 mph63%29.86 "Hg10 mi
7:50 AM59 °FSunny.9 mph68%29.86 "Hg10 mi
7:20 AM59 °FSunny.8 mph63%29.89 "Hg10 mi
6:50 AM57 °FSunny.7 mph67%29.89 "Hg10 mi
6:20 AM55 °FPassing clouds.7 mph72%29.89 "HgN/A
5:50 AM55 °FClear.7 mph72%29.89 "Hg10 mi
5:20 AM54 °FClear.7 mph77%29.92 "Hg10 mi
4:50 AM55 °FOvercast.7 mph77%29.92 "HgN/A
4:20 AM54 °FPassing clouds.7 mph82%29.92 "HgN/A
3:50 AM54 °FCool.8 mph77%29.95 "HgN/A
3:20 AM54 °FCool.7 mph77%29.95 "HgN/A
2:50 AM54 °FCool.6 mph82%29.98 "HgN/A
2:20 AM54 °FCool.8 mph82%29.98 "HgN/A
1:50 AM55 °FPassing clouds.8 mph82%29.98 "HgN/A
1:20 AM55 °FOvercast.9 mph77%29.98 "HgN/A
12:50 AM54 °FPassing clouds.10 mph88%30.01 "HgN/A
12:20 AM55 °FPassing clouds.12 mph82%30.01 "HgN/A
Weather by CustomWeather, © 2015

See weather overviewHow to use our weather pages